Weather in Aiteke-Bi

Kazakhstan     45°50′49″N   62°09′04″E
temp.,
°C
wind,
m/s
gust,
m/s
humid.,
%
clouds,
%
prec.,
mm/h
press.,
hPa
HPBL,
m
9 may, sun
sun923:00+18w611552 0.0 1013422
02:00+18nnw7104410 0.0 1013430
05:00+15nw611505 0.0 1014391
08:00+17nw913460 0.0 10151078
11:00+21nnw1012280 0.0 10151782
14:00+24nw89240 0.0 10152262
17:00+25nw78240 0.0 10142373
20:00+22wnw57290 0.0 1014320
10 may, mon
mon1023:00+18w48440 0.0 1015244
02:00+17w49530 0.0 1014206
05:00+15wnw45590 0.0 101494
08:00+20nnw34410 0.0 1015261
11:00+25n45230 0.0 10152035
14:00+27nnw66181 0.0 10142468
17:00+27nw87175 0.0 10142306
20:00+24nw69240 0.0 1014503
11 may, tue
tue1123:00+21n48440 0.0 1016364
02:00+18nne57570 0.0 1017353
05:00+15n47630 0.0 1018300
08:00+16n78600 0.0 1019719
11:00+20nne674653 0.0 10201231
14:00+23nne77375 0.0 10191711
17:00+25nne78315 0.0 10192122
20:00+23ne810320 0.0 1020973
12 may, wed
wed1223:00+21ne712360 0.0 1021630
02:00+19ene713353 0.0 1021495
05:00+16ne712360 0.0 1023415
08:00+17ene911315 0.0 1025859
11:00+21ene910195 0.0 10251409
14:00+24ene78155 0.0 10241752
17:00+26ene78155 0.0 10232004
20:00+24ne58175 0.0 1023276
13 may, thu
thu1323:00+21ne611230 0.0 1023287
02:00+18ne511300 0.0 1023257
05:00+16ne47330 0.0 1024117
08:00+19ene57290 0.0 1024388
11:00+24ne67223 0.0 10241696
14:00+26ne67175 0.0 10222246
17:00+27ne78155 0.0 10212639
20:00+25nne57235 0.0 1021322